Flag Weather past 2 weeks in Abilene, Texas, U.S.A.

Now
70 °F

Sunny.


Feels Like: 77 °F
Forecast: 40 / 69 °F
Wind: 18 mph from Southwest

Location: Abilene Regional Airport

Current Time: Nov 20, 2014 at 2:59:25 PM

Latest Report: Nov 20, 2014 at 1:52 PM


Visibility: 10 mi

Pressure: 29.93 "Hg

Humidity: 39%

Dew point: 44 °F

Location of AbileneLocation

Historic Weather in Abilene — Graph

°F

Abilene temperature yesterday

Maximum temperature yesterday: 68 °F (at 3:52 PM)
Minimum temperature yesterday: 39 °F (at 6:52 AM)
Average temperature yesterday: 50 °F

Past Weeks' High & Low Weather Summary

 TemperatureHumidityPressure
High84 °F (Nov 10, 3:52 PM)100% (Nov 16, 8:52 AM)30.65 "Hg (Nov 16, 8:52 AM)
Low22 °F (Nov 17, 4:52 AM)16% (Nov 19, 3:52 PM)29.52 "Hg (Nov 10, 4:52 PM)
Average46 °F57%30.19 "Hg
* Reported Nov 5 12:52 PM — Nov 20 12:52 PM, Abilene, Weather by CustomWeather, © 2014

Note: Actual official high and low records may vary slightly from our data, if they occured in-between our weather recording intervals... More about our weather records

Advertising

Abilene weather history for previous 24 hours

 ConditionsComfort  
Time TempWeatherWind HumidityBarometerVisibility
12:52 PM
Nov 20
67 °FSunny.14 mph47%29.97 "Hg10 mi
11:52 AM63 °FSunny.17 mph54%30.01 "Hg10 mi
10:52 AM59 °FSunny.13 mph62%30.05 "Hg10 mi
9:52 AM53 °FScattered clouds.16 mph77%30.06 "Hg10 mi
8:52 AM50 °FLow clouds.17 mph83%30.07 "Hg10 mi
7:52 AM50 °FPassing clouds.16 mph80%30.05 "Hg10 mi
6:52 AM50 °FClear.15 mph80%30.01 "Hg10 mi
5:52 AM51 °FClear.17 mph74%30.01 "Hg10 mi
4:52 AM50 °FClear.10 mph68%30.00 "Hg10 mi
3:52 AM50 °FClear.8 mph63%30.03 "Hg10 mi
2:52 AM49 °FClear.9 mph59%30.04 "Hg10 mi
1:52 AM48 °FClear.5 mph54%30.06 "Hg10 mi
12:52 AM48 °FClear.6 mph50%30.07 "Hg10 mi
11:52 PM
Nov 19
48 °FClear.9 mph50%30.08 "Hg10 mi
10:52 PM45 °FClear.7 mph51%30.09 "Hg10 mi
9:52 PM45 °FClear.5 mph48%30.10 "Hg10 mi
8:52 PM46 °FClear.5 mph46%30.11 "Hg10 mi
7:52 PM52 °FClear.5 mph35%30.11 "Hg10 mi
6:52 PM57 °FClear.6 mph29%30.11 "Hg10 mi
4:52 PM67 °FSunny.3 mph17%30.06 "Hg10 mi
3:52 PM68 °FSunny.3 mph16%30.07 "Hg10 mi
2:52 PM67 °FSunny.5 mph17%30.08 "Hg10 mi
Weather by CustomWeather, © 2014

See weather overviewHow to use our weather pages